When you browse on this site, cookies collect data to enhance your experience and personalize the content and advertising you see.
Visit our Privacy Policy to learn more. By continuing to use the site, you agree to this use of cookies and data.
  • In Hungary
  • List of Countries
  • For 7 days
  • Water Temperature
  • Weather Map
  • News
  • Weather Widgets
  • user-avatar
    Login

    Hourly Weather Janochow

    Today, 13 November, Wednesday

    Time Temperature Precipitation Wind Pressure Humidity
    00:00 +5°C° 0.9 mm 1 mps 721 mmHg 97%
    01:00 +5°C° 0.9 mm 1 mps 721 mmHg 97%
    02:00 +5°C° 0.4 mm 1 mps 720 mmHg 97%
    03:00 +5°C° 0.4 mm 1 mps 720 mmHg 97%
    04:00 +5°C° 0.4 mm 1 mps 720 mmHg 97%
    05:00 +5°C° 0 mm 1 mps 719 mmHg 97%
    06:00 +5°C° 0 mm 1 mps 719 mmHg 97%
    07:00 +5°C° 0 mm 1 mps 719 mmHg 97%
    08:00 +5°C° 0.3 mm 1 mps 719 mmHg 97%
    09:00 +5°C° 0.3 mm 1 mps 719 mmHg 97%
    10:00 +4°C° 0.3 mm 2 mps 718 mmHg 97%
    11:00 +4°C° 1.1 mm 2 mps 718 mmHg 97%
    12:00 +4°C° 1.1 mm 2 mps 718 mmHg 96%
    13:00 +4°C° 1.1 mm 2 mps 718 mmHg 96%
    14:00 +4°C° 0.5 mm 2 mps 718 mmHg 96%
    15:00 +4°C° 0.5 mm 2 mps 719 mmHg 96%
    16:00 +4°C° 0.5 mm 2 mps 719 mmHg 96%
    17:00 +4°C° 0.5 mm 2 mps 719 mmHg 96%
    18:00 +4°C° 0.5 mm 2 mps 719 mmHg 96%
    19:00 +3°C° 0.5 mm 2 mps 719 mmHg 95%
    20:00 +2°C° 1.7 mm 3 mps 719 mmHg 95%
    21:00 +2°C° 1.7 mm 3 mps 720 mmHg 96%
    22:00 +1°C° 1.7 mm 3 mps 720 mmHg 96%
    23:00 +1°C° 0.7 mm 3 mps 720 mmHg 96%

    Tomorrow, 14 November, Thursday

    Time Temperature Precipitation Wind Pressure Humidity
    00:00 +1°C° 0.7 mm 3 mps 721 mmHg 96%
    01:00 +1°C° 0.7 mm 3 mps 721 mmHg 96%
    02:00 +1°C° 0.3 mm 3 mps 721 mmHg 95%
    03:00 +2°C° 0.3 mm 2 mps 722 mmHg 94%
    04:00 +2°C° 0.3 mm 2 mps 722 mmHg 92%
    05:00 +2°C° 0 mm 2 mps 722 mmHg 92%
    06:00 +2°C° 0 mm 1 mps 723 mmHg 91%
    07:00 +2°C° 0 mm 1 mps 723 mmHg 91%
    08:00 +2°C° 0 mm 2 mps 724 mmHg 88%
    09:00 +3°C° 0 mm 2 mps 724 mmHg 85%
    10:00 +3°C° 0 mm 2 mps 724 mmHg 82%
    11:00 +4°C° 0 mm 2 mps 724 mmHg 79%
    12:00 +5°C° 0 mm 2 mps 725 mmHg 77%
    13:00 +6°C° 0 mm 2 mps 725 mmHg 74%
    14:00 +5°C° 0 mm 2 mps 725 mmHg 78%
    15:00 +4°C° 0 mm 2 mps 724 mmHg 83%
    16:00 +2°C° 0 mm 3 mps 724 mmHg 87%
    17:00 +2°C° 0 mm 3 mps 724 mmHg 88%
    18:00 +3°C° 0 mm 2 mps 724 mmHg 89%
    19:00 +3°C° 0 mm 2 mps 724 mmHg 91%
    20:00 +2°C° 0 mm 3 mps 724 mmHg 91%
    21:00 +3°C° 0 mm 3 mps 724 mmHg 91%
    22:00 +3°C° 0 mm 3 mps 724 mmHg 91%
    23:00 +3°C° 0 mm 3 mps 723 mmHg 92%

    Day after tomorrow, 15 November, Friday

    Time Temperature Precipitation Wind Pressure Humidity
    00:00 +3°C° 0 mm 4 mps 723 mmHg 94%
    01:00 +3°C° 0 mm 4 mps 723 mmHg 95%
    02:00 +3°C° 0 mm 4 mps 722 mmHg 95%
    03:00 +3°C° 0 mm 4 mps 722 mmHg 95%
    04:00 +3°C° 0 mm 4 mps 722 mmHg 95%
    05:00 +4°C° 0 mm 4 mps 722 mmHg 94%
    06:00 +4°C° 0 mm 4 mps 722 mmHg 93%
    07:00 +4°C° 0 mm 4 mps 721 mmHg 91%
    08:00 +7°C° 0 mm 6 mps 721 mmHg 84%
    09:00 +9°C° 0 mm 6 mps 721 mmHg 79%
    10:00 +10°C° 0 mm 7 mps 721 mmHg 74%
    11:00 +11°C° 0 mm 7 mps 721 mmHg 73%
    12:00 +11°C° 0 mm 7 mps 721 mmHg 71%
    13:00 +13°C° 0 mm 6 mps 721 mmHg 69%
    14:00 +11°C° 0 mm 6 mps 721 mmHg 72%
    15:00 +10°C° 0 mm 5 mps 721 mmHg 76%
    16:00 +10°C° 0 mm 5 mps 721 mmHg 79%
    17:00 +10°C° 0 mm 4 mps 722 mmHg 81%
    18:00 +10°C° 0 mm 4 mps 722 mmHg 83%
    19:00 +9°C° 0 mm 3 mps 722 mmHg 86%
    20:00 +9°C° 0 mm 3 mps 722 mmHg 86%
    21:00 +8°C° 0 mm 4 mps 722 mmHg 87%
    22:00 +8°C° 0 mm 4 mps 723 mmHg 87%
    23:00 +9°C° 0 mm 5 mps 723 mmHg 84%

    16 November, Saturday

    Time Temperature Precipitation Wind Pressure Humidity
    00:00 +9°C° 0 mm 6 mps 723 mmHg 81%
    01:00 +10°C° 0 mm 7 mps 723 mmHg 79%
    02:00 +10°C° 0 mm 7 mps 723 mmHg 79%
    03:00 +10°C° 0 mm 7 mps 723 mmHg 79%
    04:00 +10°C° 0 mm 6 mps 723 mmHg 80%
    05:00 +9°C° 0 mm 5 mps 723 mmHg 82%
    06:00 +8°C° 0 mm 4 mps 724 mmHg 84%
    07:00 +9°C° 0 mm 3 mps 724 mmHg 86%
    08:00 +8°C° 0 mm 3 mps 725 mmHg 85%
    09:00 +8°C° 0 mm 2 mps 726 mmHg 83%
    10:00 +7°C° 0 mm 2 mps 727 mmHg 81%
    11:00 +8°C° 0 mm 2 mps 727 mmHg 79%
    12:00 +9°C° 0 mm 1 mps 728 mmHg 76%
    13:00 +10°C° 0 mm 1 mps 728 mmHg 74%
    14:00 +9°C° 0 mm 1 mps 728 mmHg 78%
    15:00 +8°C° 0 mm 1 mps 729 mmHg 82%
    16:00 +6°C° 0 mm 0 mps 729 mmHg 86%
    17:00 +7°C° 0 mm 1 mps 729 mmHg 87%
    18:00 +7°C° 0 mm 1 mps 729 mmHg 88%
    19:00 +6°C° 0 mm 1 mps 729 mmHg 90%
    20:00 +7°C° 0 mm 1 mps 729 mmHg 90%
    21:00 +7°C° 0 mm 1 mps 729 mmHg 91%
    22:00 +6°C° 0 mm 2 mps 729 mmHg 91%
    23:00 +6°C° 0.3 mm 2 mps 729 mmHg 92%

    17 November, Sunday

    Time Temperature Precipitation Wind Pressure Humidity
    00:00 +7°C° 0.3 mm 2 mps 729 mmHg 92%
    01:00 +7°C° 0.3 mm 2 mps 728 mmHg 92%
    02:00 +7°C° 0.4 mm 2 mps 728 mmHg 92%
    03:00 +8°C° 0.4 mm 2 mps 727 mmHg 92%
    04:00 +8°C° 0.4 mm 2 mps 727 mmHg 93%
    05:00 +8°C° 0 mm 3 mps 726 mmHg 92%
    06:00 +8°C° 0 mm 3 mps 726 mmHg 91%
    07:00 +8°C° 0 mm 3 mps 725 mmHg 91%
    08:00 +8°C° 0 mm 4 mps 725 mmHg 87%
    09:00 +10°C° 0 mm 4 mps 725 mmHg 82%
    10:00 +10°C° 0 mm 5 mps 725 mmHg 78%
    11:00 +10°C° 0 mm 5 mps 725 mmHg 77%
    12:00 +12°C° 0 mm 5 mps 725 mmHg 77%
    13:00 +12°C° 0 mm 5 mps 725 mmHg 76%
    14:00 +11°C° 0 mm 4 mps 724 mmHg 79%
    15:00 +11°C° 0 mm 4 mps 724 mmHg 81%
    16:00 +10°C° 0 mm 4 mps 724 mmHg 84%
    17:00 +10°C° 0 mm 4 mps 724 mmHg 85%
    18:00 +8°C° 0 mm 4 mps 724 mmHg 86%
    19:00 +8°C° 0 mm 4 mps 724 mmHg 88%
    20:00 +8°C° 0 mm 4 mps 724 mmHg 87%
    21:00 +8°C° 0 mm 4 mps 724 mmHg 87%
    22:00 +8°C° 0 mm 4 mps 724 mmHg 87%
    23:00 +8°C° 0 mm 4 mps 724 mmHg 86%

    18 November, Monday

    Time Temperature Precipitation Wind Pressure Humidity
    00:00 +7°C° 0 mm 4 mps 723 mmHg 86%
    01:00 +7°C° 0 mm 4 mps 723 mmHg 85%
    02:00 +7°C° 0 mm 4 mps 723 mmHg 85%
    03:00 +7°C° 0 mm 4 mps 723 mmHg 86%
    04:00 +7°C° 0 mm 4 mps 723 mmHg 86%
    05:00 +7°C° 0 mm 4 mps 723 mmHg 84%
    06:00 +7°C° 0 mm 4 mps 723 mmHg 83%
    07:00 +7°C° 0 mm 5 mps 723 mmHg 82%
    08:00 +8°C° 0 mm 5 mps 723 mmHg 80%
    09:00 +8°C° 0 mm 5 mps 724 mmHg 78%
    10:00 +9°C° 0 mm 5 mps 724 mmHg 76%
    11:00 +9°C° 0 mm 5 mps 724 mmHg 75%
    12:00 +9°C° 0 mm 5 mps 724 mmHg 74%
    13:00 +10°C° 0 mm 5 mps 724 mmHg 73%
    14:00 +10°C° 0 mm 4 mps 724 mmHg 76%
    15:00 +10°C° 0 mm 4 mps 725 mmHg 78%
    16:00 +10°C° 0 mm 3 mps 725 mmHg 81%
    17:00 +9°C° 0 mm 3 mps 725 mmHg 83%
    18:00 +9°C° 0 mm 3 mps 726 mmHg 84%
    19:00 +9°C° 0 mm 3 mps 726 mmHg 85%
    20:00 +9°C° 0 mm 3 mps 726 mmHg 86%
    21:00 +8°C° 0 mm 3 mps 727 mmHg 87%
    22:00 +8°C° 0 mm 2 mps 727 mmHg 88%
    23:00 +8°C° 0 mm 2 mps 727 mmHg 89%
    Show more